[[{"header":{"parameterUnit":"m.s-1","parameterCategory":1,"la1":30.2991,"la2":30.254,"lo1":-89.0895,"lo2":-89.0444,"dy":0.0017,"dx":0.0017,"nx":28,"ny":28,"refTime":"2025-09-15T09:00:00:Z","depth":0,"parameterNumber":2,"parameterNumberName":"U-component_of_WINDS"},"data":[0,0,0,0,0,0,0,0,0,0,0,0,0,0,0,0,0,0,0,0,0,0,0,0,0,0,0,0,0,0,0,0,0,0,0,0,0,0,0,0,0,0,0,0,0,0,0,0,0,0,0,0,0,0,0,0,0,0,-0.7344,-0.7345,0,-0.7398,-0.7398,-0.7399,-0.7408,-0.7408,-0.7407,-0.7407,-0.7462,-0.7464,-0.7466,0,0,0,0,0,0,0,0,0,0,0,0,0,-0.7252,-0.7254,-0.7344,-0.7345,-0.7346,-0.7397,-0.7398,-0.7399,-0.7408,-0.7408,-0.7407,-0.7407,-0.7462,-0.7464,-0.7466,0,0,0,0,0,0,0,0,0,0,0,0,0,-0.7297,-0.7254,-0.7344,-0.7356,-0.7358,-0.7397,-0.7398,-0.7399,-0.7408,-0.7408,-0.7407,-0.7406,-0.7461,-0.7464,-0.7467,-0.7498,0,0,-0.7475,-0.7477,0,0,0,0,0,0,0,0,-0.7295,-0.7301,-0.7354,-0.7356,-0.7358,-0.7395,-0.7386,-0.7432,-0.7409,-0.7389,-0.7407,-0.7406,-0.7441,-0.7445,-0.7457,-0.75,-0.7503,-0.7476,-0.7477,-0.7479,-0.7479,0,0,0,0,0,0,0,-0.7292,-0.7299,-0.7365,-0.7355,-0.7357,-0.736,-0.7365,-0.7395,-0.7418,-0.7391,-0.7392,-0.7398,-0.7442,-0.7454,-0.7458,-0.7504,-0.7476,-0.7478,-0.748,-0.7481,-0.7576,-0.7577,0,0,0,0,0,0,-0.7286,-0.7296,-0.7364,-0.7367,-0.7324,-0.7362,-0.7368,-0.7384,-0.7418,-0.7422,-0.7398,-0.7398,-0.7449,-0.7455,-0.746,-0.7499,-0.7479,-0.7481,-0.7483,-0.7575,-0.7576,-0.7577,0,0,0,0,0,0,-0.7284,-0.7292,-0.7362,-0.7332,-0.7341,-0.7364,-0.7382,-0.7385,-0.7398,-0.7424,-0.7428,-0.7407,-0.7449,-0.7456,-0.7488,-0.7501,-0.7483,-0.7485,-0.7574,-0.7575,-0.7577,-0.7577,0,0,0,0,0,0,-0.7281,-0.7291,-0.7303,-0.7332,-0.7342,-0.7388,-0.7383,-0.7387,-0.7403,-0.7403,-0.7432,-0.7437,-0.7449,-0.7484,-0.7491,-0.7505,-0.7487,-0.7573,-0.7575,-0.7576,-0.7576,-0.7578,-0.758,0,0,0,0,0,-0.7278,-0.7301,-0.7303,-0.7312,-0.7357,-0.7389,-0.7395,-0.7409,-0.7403,-0.7416,-0.7432,-0.7436,-0.7499,-0.7487,-0.7495,-0.751,-0.7572,-0.7574,-0.7576,-0.7575,-0.7578,-0.758,0,0,0,0,0,0,-0.7273,-0.7305,-0.7308,-0.7341,-0.7362,-0.7391,-0.7406,-0.7411,-0.7434,-0.7434,-0.745,-0.7457,-0.7488,-0.7502,-0.7489,-0.7542,-0.7535,-0.7539,-0.7532,-0.7534,-0.7536,-0.7532,-0.749,0,0,0,0,0,-0.7276,-0.7299,-0.7326,-0.7352,-0.7363,-0.7383,-0.7397,-0.7406,-0.7428,-0.7438,-0.7457,-0.7479,-0.7504,-0.752,-0.7544,-0.7578,-0.7585,-0.7592,-0.7594,-0.7596,-0.7599,-0.7618,-0.7622,-0.7583,-0.7583,-0.7583,0,0,-0.7282,-0.7302,-0.7316,-0.7352,-0.7369,-0.7393,-0.739,-0.7415,-0.7433,-0.7442,-0.7473,-0.7488,-0.7514,-0.7547,-0.7563,-0.756,-0.7611,-0.7598,-0.7599,-0.7601,-0.7621,-0.7624,-0.7628,-0.7584,-0.7584,-0.7584,0,0,-0.7305,-0.7322,-0.7347,-0.7364,-0.7391,-0.7404,-0.741,-0.7438,-0.7448,-0.748,-0.7487,-0.7508,-0.7551,-0.7569,-0.7584,-0.7615,-0.7619,-0.7622,-0.7633,-0.7652,-0.7655,-0.7658,-0.7669,-0.7673,-0.7625,-0.7625,-0.7625,0,-0.7309,-0.7345,-0.7359,-0.7384,-0.74,-0.7408,-0.7433,-0.745,-0.7483,-0.7494,-0.749,-0.7544,-0.7562,-0.76,-0.7607,-0.7619,-0.7627,-0.7619,-0.7653,-0.7656,-0.7659,-0.767,-0.7674,-0.7625,-0.7625,-0.7625,-0.7625,0,-0.7349,-0.7374,-0.739,-0.7422,-0.744,-0.7465,-0.7483,-0.7499,-0.7506,-0.752,-0.7553,-0.7575,-0.7604,-0.7614,-0.7621,-0.7653,-0.7651,-0.765,-0.7643,-0.7663,-0.7674,-0.7678,-0.7626,-0.7626,-0.7626,-0.7625,0,0,-0.7371,-0.741,-0.7416,-0.743,-0.746,-0.748,-0.7505,-0.7534,-0.7548,-0.757,-0.7593,-0.7628,-0.7628,-0.7645,-0.7655,-0.7671,-0.7695,-0.7669,-0.767,-0.7673,-0.7732,-0.7733,-0.7738,-0.7698,-0.7699,-0.7699,-0.773,0,-0.7398,-0.7443,-0.7456,-0.7495,-0.7518,-0.7527,-0.7549,-0.757,-0.7584,-0.7606,-0.7621,-0.7647,-0.7644,-0.7655,-0.7671,-0.7688,-0.7707,-0.7686,-0.7719,-0.772,-0.7713,-0.7743,-0.7744,-0.7772,-0.7735,-0.7735,-0.7736,0,-0.7435,-0.7459,-0.7499,-0.7527,-0.7537,-0.7557,-0.7584,-0.7605,-0.7629,-0.7638,-0.7657,-0.7666,-0.7693,-0.7685,-0.7724,-0.7709,-0.7723,-0.7734,-0.7735,-0.7739,-0.7729,-0.7749,-0.7782,-0.7786,-0.7743,-0.7742,-0.7742,0,-0.7448,-0.7489,-0.7519,-0.7531,-0.7564,-0.7578,-0.7592,-0.7616,-0.7632,-0.7656,-0.7667,-0.7694,-0.7709,-0.773,-0.7745,-0.7738,-0.7783,-0.7776,-0.7792,-0.7791,-0.7801,-0.78,-0.7837,-0.7809,-0.7809,-0.7809,-0.7809,0,-0.7477,-0.7501,-0.7525,-0.7543,-0.7571,-0.7587,-0.7614,-0.7629,-0.765,-0.7672,-0.7681,-0.7702,-0.7721,-0.7744,-0.7756,-0.7787,-0.7793,-0.7802,-0.7805,-0.7801,-0.78,-0.7811,-0.781,-0.781,-0.781,-0.781,-0.781,0,-0.7495,-0.7512,-0.7545,-0.7573,-0.7581,-0.7601,-0.7625,-0.7644,-0.7658,-0.7685,-0.7693,-0.7715,-0.7743,-0.776,-0.7796,-0.7804,-0.7838,-0.784,-0.783,-0.7831,-0.7846,-0.7845,-0.7892,-0.7899,-0.7866,-0.7866,-0.7867,0,-0.7513,-0.7532,-0.7562,-0.7577,-0.7592,-0.7616,-0.7633,-0.7649,-0.7666,-0.7695,-0.771,-0.7739,-0.7762,-0.7806,-0.7826,-0.7854,-0.7857,-0.7872,-0.7861,-0.7857,-0.7858,-0.7857,-0.7859,-0.7873,-0.7874,-0.7874,-0.7874,0,-0.7542,-0.755,-0.7573,-0.76,-0.7619,-0.7641,-0.7663,-0.7675,-0.7695,-0.7714,-0.7742,-0.776,-0.7797,-0.7825,-0.7854,-0.787,-0.7876,-0.7877,-0.7882,-0.7879,-0.7872,-0.7877,-0.7835,-0.7876,-0.7876,-0.7876,-0.7876,-0.7876,-0.7561,-0.7579,-0.7603,-0.7629,-0.7647,-0.7668,-0.7686,-0.7703,-0.7727,-0.7757,-0.7765,-0.7795,-0.782,-0.786,-0.7876,-0.79,-0.7898,-0.7905,-0.7907,-0.7909,-0.791,-0.7868,-0.7905,-0.7905,-0.7905,-0.7905,-0.7905,0,-0.7592,-0.7608,-0.7632,-0.7662,-0.7683,-0.7686,-0.771,-0.7727,-0.7754,-0.7776,-0.7799,-0.7832,-0.786,-0.7882,-0.791,-0.7925,-0.7929,-0.7932,-0.7932,-0.7935,-0.7909,-0.7902,-0.7929,-0.7929,-0.7929,-0.7929,-0.7929,-0.7929,-0.761,-0.764,-0.7651,-0.769,-0.7706,-0.7736,-0.7749,-0.7768,-0.7786,-0.7823,-0.7846,-0.7859,-0.7882,-0.7912,-0.7938,-0.7944,-0.7954,-0.7958,-0.7964,-0.794,-0.7937,-0.7934,-0.7928,-0.796,-0.796,-0.7988,-0.7988,-0.7988]},{"header":{"parameterUnit":"m.s-1","parameterCategory":1,"la1":30.2991,"la2":30.254,"lo1":-89.0895,"lo2":-89.0444,"dy":0.0017,"dx":0.0017,"nx":28,"ny":28,"refTime":"2025-09-15T09:00:00:Z","depth":0,"parameterNumber":3,"parameterNumberName":"V-component_of_WINDS"},"data":[0,0,0,0,0,0,0,0,0,0,0,0,0,0,0,0,0,0,0,0,0,0,0,0,0,0,0,0,0,0,0,0,0,0,0,0,0,0,0,0,0,0,0,0,0,0,0,0,0,0,0,0,0,0,0,0,0,0,0.7397,0.7397,0,0.7321,0.732,0.7319,0.7302,0.7303,0.7303,0.7304,0.7221,0.7218,0.7216,0,0,0,0,0,0,0,0,0,0,0,0,0,0.7526,0.7524,0.7398,0.7397,0.7396,0.7321,0.732,0.7319,0.7302,0.7303,0.7304,0.7304,0.7222,0.7219,0.7215,0,0,0,0,0,0,0,0,0,0,0,0,0,0.7462,0.7523,0.7398,0.7379,0.7376,0.7321,0.732,0.7318,0.7302,0.7303,0.7304,0.7305,0.7223,0.7219,0.7215,0.7172,0,0,0.7202,0.72,0,0,0,0,0,0,0,0,0.7466,0.7457,0.7382,0.738,0.7377,0.7322,0.7335,0.7269,0.7302,0.733,0.7304,0.7305,0.7254,0.7247,0.723,0.7168,0.7165,0.7202,0.7199,0.7198,0.7196,0,0,0,0,0,0,0,0.747,0.746,0.7367,0.7381,0.7378,0.7373,0.7364,0.7322,0.7288,0.7328,0.7326,0.7318,0.7252,0.7235,0.7228,0.7163,0.7202,0.7198,0.7196,0.7194,0.7061,0.706,0,0,0,0,0,0,0.7479,0.7464,0.7369,0.7365,0.7424,0.737,0.736,0.7339,0.7288,0.7281,0.7317,0.7317,0.7241,0.7233,0.7225,0.7171,0.7198,0.7194,0.7191,0.7062,0.7061,0.706,0,0,0,0,0,0,0.7481,0.747,0.7372,0.7414,0.7401,0.7366,0.7342,0.7337,0.7319,0.728,0.7274,0.7305,0.7242,0.7231,0.7186,0.7168,0.7192,0.7188,0.7064,0.7062,0.7061,0.7064,0,0,0,0,0,0,0.7485,0.7471,0.7456,0.7414,0.7399,0.7335,0.7341,0.7335,0.7312,0.7312,0.7268,0.7261,0.7241,0.7192,0.7182,0.7163,0.7185,0.7065,0.7063,0.7061,0.7065,0.7062,0.706,0,0,0,0,0,0.749,0.7459,0.7455,0.7444,0.7379,0.7334,0.7326,0.7305,0.7311,0.7294,0.7269,0.7262,0.7172,0.7187,0.7176,0.7156,0.7066,0.7064,0.7061,0.7066,0.7063,0.706,0,0,0,0,0,0,0.7497,0.7453,0.7448,0.7403,0.7373,0.7332,0.731,0.7302,0.7268,0.7269,0.7244,0.7234,0.719,0.7168,0.7186,0.7111,0.7119,0.7114,0.7127,0.7124,0.7121,0.7127,0.7181,0,0,0,0,0,0.7494,0.7463,0.7425,0.7389,0.7374,0.7345,0.7324,0.7311,0.7278,0.7265,0.7237,0.7204,0.7168,0.7145,0.711,0.7062,0.7052,0.7043,0.704,0.7039,0.7034,0.7007,0.7002,0.7052,0.7052,0.7052,0,0,0.7486,0.7458,0.744,0.739,0.7365,0.7332,0.7334,0.7299,0.7273,0.7259,0.7214,0.7193,0.7154,0.7108,0.7085,0.7088,0.7018,0.7036,0.7035,0.7031,0.7004,0.6999,0.6995,0.7051,0.7051,0.7051,0,0,0.7455,0.7431,0.7398,0.7374,0.7337,0.7317,0.731,0.727,0.7255,0.721,0.7199,0.7168,0.7107,0.708,0.7058,0.7018,0.701,0.7007,0.6994,0.6968,0.6964,0.696,0.6945,0.694,0.7003,0.7003,0.7003,0,0.745,0.7401,0.7382,0.7348,0.7325,0.7313,0.7278,0.7255,0.7207,0.7192,0.7196,0.712,0.7093,0.7039,0.703,0.7013,0.7002,0.7012,0.6967,0.6963,0.6959,0.6944,0.6938,0.7003,0.7003,0.7003,0.7003,0,0.7396,0.7362,0.734,0.7296,0.7271,0.7237,0.7212,0.7189,0.7178,0.7158,0.7112,0.708,0.7038,0.7025,0.7013,0.6969,0.6972,0.6972,0.6979,0.6954,0.694,0.6934,0.7003,0.7003,0.7003,0.7003,0,0,0.7366,0.7313,0.7305,0.7285,0.7244,0.7216,0.7181,0.7142,0.7122,0.709,0.7059,0.7009,0.7008,0.6984,0.6969,0.6946,0.6916,0.6949,0.6947,0.6943,0.6864,0.6864,0.6858,0.6911,0.691,0.6909,0.6867,0,0.7329,0.7268,0.725,0.7197,0.7165,0.7153,0.7122,0.7093,0.7073,0.7042,0.702,0.6985,0.6987,0.6972,0.6949,0.6924,0.6899,0.6927,0.688,0.6879,0.6889,0.685,0.685,0.6812,0.6861,0.6861,0.686,0,0.7277,0.7246,0.7191,0.7154,0.714,0.7113,0.7075,0.7046,0.7012,0.6999,0.6973,0.696,0.6922,0.6933,0.6879,0.6898,0.6878,0.6863,0.6861,0.6855,0.6867,0.6842,0.68,0.6794,0.6851,0.6852,0.6852,0,0.726,0.7204,0.7164,0.7147,0.7103,0.7084,0.7064,0.7032,0.7009,0.6976,0.6961,0.6923,0.6902,0.6873,0.685,0.686,0.6798,0.6807,0.6785,0.6786,0.6772,0.6773,0.6725,0.6761,0.6761,0.6761,0.6761,0,0.722,0.7187,0.7156,0.7131,0.7092,0.7072,0.7034,0.7014,0.6985,0.6955,0.6942,0.6914,0.6886,0.6854,0.6836,0.6794,0.6784,0.6772,0.6768,0.6773,0.6774,0.6758,0.676,0.6759,0.676,0.676,0.676,0,0.7194,0.7172,0.7127,0.709,0.7079,0.7053,0.702,0.6994,0.6975,0.6937,0.6927,0.6896,0.6858,0.6833,0.6783,0.6771,0.6725,0.6721,0.6736,0.6734,0.6714,0.6715,0.6652,0.6643,0.6687,0.6686,0.6686,0,0.7169,0.7143,0.7103,0.7083,0.7064,0.7031,0.7009,0.6987,0.6964,0.6924,0.6903,0.6864,0.6832,0.6771,0.6743,0.6705,0.67,0.6681,0.6694,0.67,0.6698,0.67,0.6696,0.6678,0.6677,0.6677,0.6677,0,0.7127,0.7118,0.7087,0.7052,0.7025,0.6996,0.6967,0.6951,0.6924,0.6899,0.686,0.6835,0.6786,0.6747,0.6706,0.6685,0.6676,0.6673,0.6666,0.667,0.668,0.6673,0.6729,0.6674,0.6675,0.6675,0.6675,0.6675,0.71,0.7076,0.7045,0.701,0.6987,0.696,0.6934,0.6913,0.6881,0.6839,0.6829,0.6788,0.6754,0.67,0.6677,0.6644,0.6646,0.6636,0.6633,0.6631,0.663,0.6687,0.6637,0.6637,0.6637,0.6637,0.6637,0,0.7057,0.7036,0.7005,0.6965,0.6938,0.6934,0.6902,0.6879,0.6844,0.6814,0.6783,0.6738,0.6701,0.6671,0.6632,0.6611,0.6606,0.6601,0.6602,0.6597,0.6631,0.6641,0.6606,0.6606,0.6606,0.6606,0.6606,0.6606,0.7031,0.6991,0.6978,0.6925,0.6905,0.6866,0.6848,0.6822,0.6799,0.675,0.6719,0.6701,0.667,0.6629,0.6594,0.6586,0.6572,0.6568,0.6559,0.6591,0.6594,0.6598,0.6607,0.6565,0.6565,0.6527,0.6527,0.6526]}]]